This demonstration page uses our WeatherBlox Daily Observations layout. Learn more.

39.01783, -85.05884

Hourly Observations for January 5, 2019

Temp ( °F °C ) Dew Point ( °F °C ) Humidity (%) Winds ( mph kmh ) Pressure ( in mb ) Visibility ( mi km ) Precip ( " mm )
12:52 am 00:52 Cloudy 40 4.4 37 2.8 89 89 WNW 9 15 29.65 1004 10 16.09344 0.001 0.001
1:52 am 01:52 Partly Cloudy 39 3.9 37 2.8 93 93 W 10 17 29.65 1004 10 16.09344 0 0
2:52 am 02:52 Partly Cloudy 37 2.8 35 1.7 93 93 W 9 15 29.68 1005 8 12.874752 0 0
3:52 am 03:52 Mostly Clear 37 2.8 34 1.1 89 89 W 7 11 29.71 1006 10 16.09344 0 0
4:52 am 04:52 Clear 36 2.2 33 0.6 89 89 W 9 15 29.74 1007 10 16.09344 0 0
5:52 am 05:52 Clear 36 2.2 33 0.6 89 89 WSW 6 9 29.77 1008 10 16.09344 0 0
6:52 am 06:52 Clear 35 1.7 32 0 89 89 WSW 7 11 29.8 1009 10 16.09344 0 0
7:52 am 07:52 Clear 35 1.7 32 0 89 89 WSW 7 11 29.83 1010 7 11.265408 0 0
8:52 am 08:52 Sunny 35 1.7 32 0 89 89 WSW 6 9 29.85 1011 7 11.265408 0 0
9:52 am 09:52 Partly Cloudy with Mist and Fog 38 3.3 34 1.1 86 86 WSW 8 13 29.88 1012 6 9.656064 0 0
10:52 am 10:52 Hazy 40 4.4 35 1.7 83 83 SW 9 15 29.91 1013 6 9.656064 0 0
11:52 am 11:52 Sunny 44 6.7 36 2.2 73 73 W 8 13 29.91 1013 7 11.265408 0 0
12:52 pm 12:52 Mostly Sunny 47 8.3 37 2.8 69 69 WSW 9 15 29.91 1013 9 14.484096 0 0
1:52 pm 13:52 Sunny 49 9.4 37 2.8 64 64 WSW 9 15 29.91 1013 10 16.09344 0 0
2:52 pm 14:52 Mostly Sunny 51 10.6 37 2.8 59 59 WSW 12 19 29.91 1013 10 16.09344 0 0
3:52 pm 15:52 Mostly Sunny 52 11.1 37 2.8 57 57 SW 10 17 29.91 1013 10 16.09344 0 0
4:52 pm 16:52 Mostly Sunny 51 10.6 37 2.8 59 59 SW 7 11 29.94 1014 10 16.09344 0 0
5:52 pm 17:52 Mostly Clear 48 8.9 37 2.8 66 66 SW 7 11 29.97 1015 10 16.09344 0 0
6:52 pm 18:52 Mostly Clear 46 7.8 37 2.8 71 71 SW 7 11 29.97 1015 10 16.09344 0 0
7:52 pm 19:52 Clear 46 7.8 37 2.8 71 71 SW 7 11 30 1016 10 16.09344 0 0
8:52 pm 20:52 Clear 46 7.8 37 2.8 71 71 SW 10 17 30 1016 10 16.09344 0 0
9:52 pm 21:52 Clear 44 6.7 37 2.8 76 76 SW 10 17 30 1016 10 16.09344 0 0
10:52 pm 22:52 Clear 44 6.7 36 2.2 73 73 WSW 5 7 30.03 1017 10 16.09344 0 0
11:52 pm 23:52 Clear 42 5.6 36 2.2 79 79 WSW 7 11 30.03 1017 10 16.09344 0 0

Powered by AerisWeather